Location: Chiroubles
(46.1812°N, 4.6660°E)
Time: 06:46:28
(UTC+00:00)

Transit 4A - Pass Details

Date: 30 November 2020
Orbit: 864 x 980 km, 66.8° (Epoch: 25 January)

Event Time Altitude Azimuth Distance (km) Brightness Sun altitude
Rises 16:59:20 0° 320° (NW) 3,678 11.3 -10.5°
Reaches altitude 10° 17:02:08 10° 312° (NW) 2,716 10.7 -10.9°
Maximum altitude 17:07:44 34° 250° (WSW) 1,521 9.8 -11.8°
Drops below altitude 10° 17:13:11 10° 188° (S) 2,639 10.6 -12.7°
Sets 17:15:53 0° 179° (S) 3,559 11.2 -13.2°
